This demonstration page uses our WeatherBlox Daily Observations layout. Learn more.

Left ArrowRight Arrow

Hourly Observations for January 20, 2020

Temp ( °F °C ) Dew Point ( °F °C ) Humidity (%) Winds ( mph kmh ) Pressure ( in mb ) Visibility ( mi km ) Precip ( " mm )
12:53 am 00:53 Clear 1 -17.2 -4 -20 79 79 E 6 9 30.44 1031 10 16 0.00 0.00
1:53 am 01:53 Clear 1 -17.2 -5 -20.6 75 75 E 7 11 30.42 1030 10 16 0.00 0.00
2:53 am 02:53 Clear 0 -17.8 -5 -20.6 79 79 ENE 5 7 30.42 1030 10 16 0.00 0.00
3:53 am 03:53 Clear 0 -17.8 -5 -20.6 79 79 E 7 11 30.39 1029 10 16 0.00 0.00
4:53 am 04:53 Clear 0 -17.8 -5 -20.6 79 79 NE 3 6 30.39 1029 10 16 0.00 0.00
5:53 am 05:53 Clear -2 -18.9 -7 -21.7 79 79 Calm 30.40 1029 10 16 0.00 0.00
6:53 am 06:53 Clear -1 -18.3 -7 -21.7 75 75 Calm 30.38 1029 10 16 0.00 0.00
7:53 am 07:53 Clear -1 -18.3 -6 -21.1 79 79 E 6 9 30.36 1028 10 16 0.00 0.00
8:53 am 08:53 Sunny 2 -16.7 -4 -20 76 76 E 7 11 30.33 1027 10 16 0.00 0.00
9:53 am 09:53 Sunny 4 -15.6 -3 -19.4 73 73 ENE 7 11 30.32 1027 10 16 0.00 0.00
10:53 am 10:53 Sunny 6 -14.4 -1 -18.3 73 73 ENE 7 11 30.29 1026 10 16 0.00 0.00
11:53 am 11:53 Sunny 9 -12.8 0 -17.8 66 66 ENE 3 6 30.25 1024 10 16 0.00 0.00
12:53 pm 12:53 Sunny 11 -11.7 2 -16.7 67 67 E 7 11 30.21 1023 10 16 0.00 0.00
1:53 pm 13:53 Sunny 12 -11.1 4 -15.6 70 70 ENE 7 11 30.16 1022 10 16 0.00 0.00
2:53 pm 14:53 Sunny 15 -9.4 5 -15 64 64 NE 3 6 30.14 1021 10 16 0.00 0.00
3:53 pm 15:53 Sunny 14 -10 5 -15 67 67 ENE 6 9 30.13 1020 10 16 0.00 0.00
4:53 pm 16:53 Sunny 14 -10 6 -14.4 71 71 E 7 11 30.11 1020 10 16 0.00 0.00
5:53 pm 17:53 Clear 14 -10 6 -14.4 71 71 NE 7 11 30.09 1019 10 16 0.00 0.00
6:53 pm 18:53 Clear 15 -9.4 7 -13.9 70 70 E 6 9 30.08 1019 10 16 0.00 0.00
7:53 pm 19:53 Clear 14 -10 7 -13.9 73 73 Calm 30.07 1018 10 16 0.00 0.00
8:53 pm 20:53 Clear 14 -10 6 -14.4 71 71 Calm 30.04 1017 10 16 0.00 0.00
9:53 pm 21:53 Clear 15 -9.4 9 -12.8 77 77 W 5 7 30.02 1017 10 16 0.00 0.00
10:53 pm 22:53 Partly Cloudy 18 -7.8 11 -11.7 74 74 W 9 15 30.00 1016 10 16 0.00 0.00
11:53 pm 23:53 Clear 17 -8.3 11 -11.7 77 77 SSW 3 6 29.98 1015 10 16 0.00 0.00

Powered by AerisWeather